Home > Weather > Lanzhou > Past weeks

Flag for China Past Weather in Lanzhou, Gansu, China — Yesterday and Last 2 Weeks

Now
61 °F

Clear.


Feels Like: 61 °F
Forecast: 56 / 72 °F
Wind: No wind

Location: Lanzhou / Zhongchuan

Current Time: Jul 25, 2016 at 6:24:32 AM

Latest Report: Jul 25, 2016 at 5:00 AM


Visibility: 10 mi

Pressure: 30.12 "Hg (25.10 "Hg at 1543m altitude)

Humidity: 88%

Dew Point: 57 °F

Location of LanzhouLocation

Past Weather in Lanzhou — Graph

°F

Lanzhou Temperature Yesterday

Maximum temperature yesterday: 72 °F (at 12:00 AM)
Minimum temperature yesterday: 59 °F (at 1:00 AM)
Average temperature yesterday: 64 °F

High & Low Weather Summary for the Past Weeks

 TemperatureHumidityPressure
High84 °F (Jul 15, 3:00 PM)100% (Jul 11, 9:00 AM)30.12 "Hg (Jul 11, 9:00 AM)
Low50 °F (Jul 15, 5:00 AM)21% (Jul 15, 2:00 PM)29.80 "Hg (Jul 20, 5:00 PM)
Average66 °F70%29.97 "Hg
* Reported Jul 10 5:00 AM — Jul 25 5:00 AM, Lanzhou, Weather by CustomWeather, © 2016

Note: Actual official high and low records may vary slightly from our data, if they occured in-between our weather recording intervals... More about our weather records

Advertising

Lanzhou Weather History for the Previous 24 Hours

Scroll right to see more
 ConditionsComfort  
Time TempWeatherWind HumidityBarometerVisibility
5:00 AM
Mon, Jul 25
61 °FClear.No wind88%30.12 "Hg10 mi
4:00 AM61 °FClear.No wind88%30.12 "Hg10 mi
3:00 AM61 °FClear.3 mph88%30.12 "Hg10 mi
2:00 AM61 °FPassing clouds.1 mph94%30.12 "HgN/A
1:00 AM61 °FPassing clouds.1 mph88%30.12 "HgN/A
12:00 AM61 °FPassing clouds.1 mph88%30.12 "HgN/A
11:00 PM
Sun, Jul 24
63 °FPassing clouds.1 mph83%30.12 "HgN/A
10:00 PM63 °FPassing clouds.3 mph83%30.12 "HgN/A
9:00 PM64 °FPartly sunny.3 mph78%30.12 "HgN/A
8:00 PM64 °FPartly sunny.6 mph73%30.09 "HgN/A
7:00 PM66 °FPartly sunny.8 mph73%30.07 "HgN/A
6:00 PM68 °FPartly sunny.8 mph69%30.04 "HgN/A
5:00 PM68 °FPartly sunny.10 mph69%30.04 "HgN/A
4:00 PM68 °FPartly sunny.8 mph69%30.04 "HgN/A
3:00 PM66 °FPartly sunny.6 mph78%30.04 "HgN/A
2:00 PM66 °FPartly sunny.3 mph73%30.04 "HgN/A
1:00 PM66 °FPartly sunny.6 mph73%30.04 "HgN/A
12:00 PM68 °FBroken clouds.8 mph60%30.04 "HgN/A
11:00 AM68 °FBroken clouds.6 mph60%30.04 "HgN/A
10:00 AM66 °FPartly sunny.3 mph68%30.01 "HgN/A
9:00 AM61 °FLight rain. Partly sunny.3 mph88%30.01 "HgN/A
8:00 AM59 °FLight rain. Scattered clouds.1 mph94%30.01 "HgN/A
7:00 AM59 °FLight rain. Passing clouds.3 mph94%29.98 "HgN/A
6:00 AM59 °FLight rain. Overcast.3 mph94%29.98 "HgN/A
Weather by CustomWeather, © 2016

See weather overviewHow to use our weather pages